Terminal Aerodrome Forecast
Issued by NWS

Home | Current Version | Previous Version | Text Only | Print | Product List | Glossary On
Versions: 1 2 3 4 5 6 7 8 9 10 11 12 13 14 15 16 17 18 19 20 21 22 23 24 25
399
FTUS43 KPAH 271120
TAFCGI
TAF
KCGI 271120Z 2712/2812 VRB05KT 4SM BR SCT025 BKN060
      TEMPO 2712/2715 -SHRA BKN025
     FM271500 19008KT P6SM VCTS SCT025CB BKN035
     FM280000 19007KT 4SM -TSRA BKN025CB
     FM280600 19005KT P6SM SCT020 BKN040=

USA.gov is the U.S. government's official web portal to all federal, state and local government web resources and services.